• In Hungary
  • List of Countries
  • For 7 days
  • Water Temperature
  • Satellite Maps
  • Weather Map
  • News
  • Weather Widgets
  • user-avatar
    Login

    Hourly Weather Goryachinsk

    Today, 23 June, Saturday

    Time Temperature Precipitation Wind Pressure Humidity
    00:00 +16°C° 0.3 mm 2 mps 710 mmHg 94%
    01:00 +16°C° 0.3 mm 2 mps 711 mmHg 96%
    02:00 +16°C° 0.2 mm 2 mps 711 mmHg 96%
    03:00 +16°C° 0.2 mm 2 mps 711 mmHg 96%
    04:00 +16°C° 0.2 mm 2 mps 711 mmHg 96%
    05:00 +16°C° 0.1 mm 3 mps 711 mmHg 94%
    06:00 +17°C° 0.1 mm 3 mps 711 mmHg 92%
    07:00 +17°C° 0.1 mm 3 mps 711 mmHg 90%
    08:00 +18°C° 0 mm 3 mps 711 mmHg 82%
    09:00 +19°C° 0 mm 4 mps 711 mmHg 74%
    10:00 +20°C° 0 mm 4 mps 711 mmHg 66%
    11:00 +21°C° 0 mm 4 mps 711 mmHg 59%
    12:00 +23°C° 0 mm 4 mps 711 mmHg 53%
    13:00 +25°C° 0 mm 4 mps 710 mmHg 46%
    14:00 +25°C° 0 mm 4 mps 710 mmHg 45%
    15:00 +25°C° 0 mm 4 mps 710 mmHg 44%
    16:00 +25°C° 0 mm 4 mps 710 mmHg 44%
    17:00 +22°C° 0.1 mm 4 mps 710 mmHg 50%
    18:00 +21°C° 0.1 mm 3 mps 710 mmHg 55%
    19:00 +20°C° 0.1 mm 3 mps 710 mmHg 61%
    20:00 +18°C° 0 mm 2 mps 710 mmHg 70%
    21:00 +16°C° 0 mm 1 mps 710 mmHg 79%
    22:00 +14°C° 0 mm 1 mps 710 mmHg 88%
    23:00 +13°C° 0 mm 1 mps 710 mmHg 90%

    Tomorrow, 24 June, Sunday

    Time Temperature Precipitation Wind Pressure Humidity
    00:00 +13°C° 0 mm 1 mps 709 mmHg 91%
    01:00 +13°C° 0 mm 2 mps 709 mmHg 93%
    02:00 +13°C° 0 mm 2 mps 709 mmHg 93%
    03:00 +13°C° 0 mm 2 mps 709 mmHg 94%
    04:00 +13°C° 0 mm 2 mps 709 mmHg 94%
    05:00 +14°C° 0 mm 3 mps 709 mmHg 85%
    06:00 +17°C° 0 mm 3 mps 709 mmHg 75%
    07:00 +19°C° 0 mm 3 mps 709 mmHg 65%
    08:00 +19°C° 0.1 mm 3 mps 709 mmHg 66%
    09:00 +19°C° 0.1 mm 3 mps 709 mmHg 67%
    10:00 +19°C° 0.1 mm 3 mps 709 mmHg 68%
    11:00 +18°C° 0.2 mm 3 mps 709 mmHg 71%
    12:00 +18°C° 0.2 mm 3 mps 709 mmHg 75%
    13:00 +18°C° 0.2 mm 2 mps 708 mmHg 78%
    14:00 +18°C° 0 mm 2 mps 708 mmHg 75%
    15:00 +19°C° 0 mm 2 mps 708 mmHg 73%
    16:00 +19°C° 0 mm 2 mps 708 mmHg 70%
    17:00 +19°C° 0 mm 2 mps 708 mmHg 72%
    18:00 +18°C° 0 mm 2 mps 708 mmHg 75%
    19:00 +17°C° 0 mm 2 mps 708 mmHg 77%
    20:00 +16°C° 0 mm 1 mps 708 mmHg 83%
    21:00 +15°C° 0 mm 1 mps 708 mmHg 90%
    22:00 +13°C° 0 mm 1 mps 708 mmHg 96%
    23:00 +13°C° 0 mm 1 mps 708 mmHg 96%

    Day after tomorrow, 25 June, Monday

    Time Temperature Precipitation Wind Pressure Humidity
    00:00 +13°C° 0 mm 1 mps 708 mmHg 97%
    01:00 +13°C° 0 mm 1 mps 708 mmHg 97%
    02:00 +13°C° 0 mm 1 mps 708 mmHg 97%
    03:00 +13°C° 0 mm 1 mps 708 mmHg 97%
    04:00 +13°C° 0 mm 1 mps 708 mmHg 97%
    05:00 +14°C° 0 mm 1 mps 708 mmHg 93%
    06:00 +16°C° 0 mm 1 mps 708 mmHg 89%
    07:00 +18°C° 0 mm 1 mps 708 mmHg 85%
    08:00 +19°C° 0 mm 1 mps 708 mmHg 82%
    09:00 +18°C° 0 mm 2 mps 708 mmHg 78%
    10:00 +19°C° 0 mm 2 mps 708 mmHg 75%
    11:00 +19°C° 0.1 mm 2 mps 708 mmHg 72%
    12:00 +20°C° 0.1 mm 2 mps 708 mmHg 70%
    13:00 +20°C° 0.1 mm 2 mps 708 mmHg 67%
    14:00 +20°C° 0.3 mm 2 mps 709 mmHg 71%
    15:00 +19°C° 0.3 mm 2 mps 709 mmHg 74%
    16:00 +20°C° 0.3 mm 1 mps 709 mmHg 78%
    17:00 +19°C° 0.1 mm 1 mps 709 mmHg 80%
    18:00 +19°C° 0.1 mm 1 mps 709 mmHg 83%
    19:00 +18°C° 0.1 mm 1 mps 710 mmHg 85%
    20:00 +16°C° 0 mm 1 mps 710 mmHg 88%
    21:00 +15°C° 0 mm 1 mps 710 mmHg 90%
    22:00 +14°C° 0 mm 1 mps 710 mmHg 93%
    23:00 +14°C° 0 mm 1 mps 710 mmHg 93%

    26 June, Tuesday

    Time Temperature Precipitation Wind Pressure Humidity
    00:00 +13°C° 0 mm 1 mps 711 mmHg 93%
    01:00 +13°C° 0 mm 1 mps 711 mmHg 93%
    02:00 +13°C° 0 mm 1 mps 711 mmHg 92%
    03:00 +13°C° 0 mm 1 mps 711 mmHg 92%
    04:00 +13°C° 0 mm 1 mps 711 mmHg 91%
    05:00 +15°C° 0 mm 1 mps 712 mmHg 84%
    06:00 +19°C° 0 mm 1 mps 712 mmHg 77%
    07:00 +21°C° 0 mm 1 mps 712 mmHg 69%
    08:00 +23°C° 0 mm 1 mps 712 mmHg 62%
    09:00 +24°C° 0 mm 2 mps 712 mmHg 55%
    10:00 +26°C° 0 mm 2 mps 712 mmHg 47%
    11:00 +26°C° 0 mm 2 mps 712 mmHg 44%
    12:00 +27°C° 0 mm 3 mps 712 mmHg 41%
    13:00 +28°C° 0 mm 3 mps 712 mmHg 39%
    14:00 +28°C° 0 mm 3 mps 712 mmHg 38%
    15:00 +28°C° 0 mm 3 mps 712 mmHg 37%
    16:00 +28°C° 0 mm 3 mps 712 mmHg 35%
    17:00 +26°C° 0 mm 2 mps 712 mmHg 43%
    18:00 +24°C° 0 mm 1 mps 712 mmHg 51%
    19:00 +22°C° 0 mm 1 mps 712 mmHg 58%
    20:00 +21°C° 0 mm 1 mps 712 mmHg 64%
    21:00 +19°C° 0 mm 1 mps 712 mmHg 69%
    22:00 +16°C° 0 mm 1 mps 712 mmHg 75%
    23:00 +15°C° 0 mm 1 mps 712 mmHg 74%

    27 June, Wednesday

    Time Temperature Precipitation Wind Pressure Humidity
    00:00 +15°C° 0 mm 1 mps 712 mmHg 74%
    01:00 +15°C° 0 mm 1 mps 712 mmHg 73%
    02:00 +15°C° 0 mm 1 mps 712 mmHg 74%
    03:00 +15°C° 0 mm 1 mps 712 mmHg 74%
    04:00 +15°C° 0 mm 1 mps 712 mmHg 74%
    05:00 +19°C° 0 mm 1 mps 712 mmHg 66%
    06:00 +22°C° 0 mm 1 mps 713 mmHg 58%
    07:00 +24°C° 0 mm 1 mps 713 mmHg 50%
    08:00 +26°C° 0 mm 1 mps 712 mmHg 46%
    09:00 +27°C° 0 mm 1 mps 712 mmHg 43%
    10:00 +28°C° 0 mm 2 mps 712 mmHg 39%
    11:00 +29°C° 0 mm 2 mps 712 mmHg 37%
    12:00 +29°C° 0 mm 2 mps 711 mmHg 36%
    13:00 +30°C° 0 mm 2 mps 711 mmHg 34%
    14:00 +30°C° 0 mm 2 mps 710 mmHg 33%
    15:00 +30°C° 0 mm 2 mps 710 mmHg 32%
    16:00 +30°C° 0 mm 2 mps 710 mmHg 31%
    17:00 +28°C° 0 mm 1 mps 710 mmHg 38%
    18:00 +26°C° 0 mm 1 mps 709 mmHg 45%
    19:00 +24°C° 0 mm 1 mps 709 mmHg 52%
    20:00 +22°C° 0 mm 1 mps 709 mmHg 53%
    21:00 +21°C° 0 mm 1 mps 709 mmHg 55%
    22:00 +19°C° 0 mm 1 mps 709 mmHg 57%
    23:00 +19°C° 0 mm 1 mps 709 mmHg 58%

    28 June, Thursday

    Time Temperature Precipitation Wind Pressure Humidity
    00:00 +18°C° 0 mm 1 mps 709 mmHg 59%
    01:00 +18°C° 0 mm 1 mps 709 mmHg 60%
    02:00 +18°C° 0 mm 1 mps 709 mmHg 62%
    03:00 +18°C° 0 mm 1 mps 709 mmHg 63%
    04:00 +18°C° 0 mm 1 mps 709 mmHg 65%
    05:00 +20°C° 0 mm 1 mps 709 mmHg 60%
    06:00 +23°C° 0 mm 1 mps 709 mmHg 54%
    07:00 +25°C° 0 mm 1 mps 709 mmHg 49%
    08:00 +26°C° 0 mm 2 mps 709 mmHg 45%
    09:00 +28°C° 0 mm 2 mps 709 mmHg 41%
    10:00 +29°C° 0 mm 2 mps 708 mmHg 38%
    11:00 +29°C° 0 mm 3 mps 708 mmHg 36%
    12:00 +30°C° 0 mm 3 mps 708 mmHg 35%
    13:00 +30°C° 0 mm 3 mps 708 mmHg 33%
    14:00 +30°C° 0 mm 3 mps 708 mmHg 35%
    15:00 +30°C° 0 mm 3 mps 708 mmHg 36%
    16:00 +30°C° 0 mm 2 mps 707 mmHg 38%
    17:00 +28°C° 0.4 mm 2 mps 707 mmHg 45%
    18:00 +26°C° 0.4 mm 2 mps 707 mmHg 53%
    19:00 +24°C° 0.4 mm 1 mps 707 mmHg 61%
    20:00 +23°C° 0.1 mm 1 mps 707 mmHg 66%
    21:00 +21°C° 0.1 mm 1 mps 707 mmHg 71%
    22:00 +19°C° 0.1 mm 1 mps 707 mmHg 75%
    23:00 +19°C° 0 mm 1 mps 707 mmHg 75%
    Show more